FW2027 Weather Reports


Display with metric or nautical units.
time (UTC)temp
F
wind
direction
speed
MPH
gust
MPH
rain 1hr
in
rain 24hr
in
rain mn
in
humidity
%
barometer
mb
20260903194553 65 192 3.0 10.0 0.00 0.00 0.00 84 1012.7
20260903193052 66 261 3.0 11.0 0.00 0.00 0.00 83 1013.0
20260903191551 66 236 5.0 11.0 0.00 0.00 0.00 84 1013.0
20260903190050 67 222 6.0 14.0 0.00 0.00 0.00 83 1013.3
20260903184550 68 286 8.0 16.0 0.00 0.00 0.00 83 1013.2
20260903183049 68 255 7.0 14.0 0.00 0.00 0.00 82 1012.9
20260903181557 69 281 8.0 15.0 0.00 0.00 0.00 81 1013.4
20260903180058 69 260 6.0 13.0 0.00 0.00 0.00 80 1013.3
20260903174547 70 211 7.0 18.0 0.00 0.00 0.00 79 1013.1
20260903173056 70 224 6.0 15.0 0.00 0.00 0.00 78 1013.0
20260903171546 71 254 10.0 18.0 0.00 0.00 0.00 75 1012.9
20260903170131 71 186 7.0 13.0 0.00 0.00 0.00 76 1013.4
20260903164550 70 267 5.0 13.0 0.00 0.00 0.00 75 1013.6
20260903163044 71 257 8.0 19.0 0.00 0.00 0.00 73 1013.6
20260903161553 72 219 11.0 20.0 0.00 0.00 0.00 70 1013.7
20260903160046 73 276 9.0 18.0 0.00 0.00 0.00 68 1013.8
20260903154552 72 196 8.0 17.0 0.00 0.00 0.00 69 1014.0
20260903153040 74 261 9.0 20.0 0.00 0.00 0.00 66 1014.0
20260903151548 74 256 7.0 12.0 0.00 0.00 0.00 68 1013.6
20260903150044 74 225 10.0 23.0 0.00 0.00 0.00 66 1013.9
20260903144541 74 243 9.0 17.0 0.00 0.00 0.00 71 1014.1
20260903143037 73 184 8.0 15.0 0.00 0.00 0.00 76 1013.9
20260903141537 74 207 8.0 18.0 0.00 0.00 0.00 73 1014.1
20260903140049 74 219 10.0 17.0 0.00 0.00 0.00 73 1014.1
20260903134541 74 220 6.0 12.0 0.00 0.02 0.00 69 1014.0
20260903133035 74 259 7.0 16.0 0.00 0.02 0.00 68 1014.3
20260903131537 74 278 10.0 20.0 0.00 0.02 0.00 69 1014.3
20260903130034 74 245 10.0 19.0 0.00 0.02 0.00 69 1014.3
20260903124533 75 240 6.0 18.0 0.00 0.02 0.00 69 1014.3
20260903123035 75 175 8.0 15.0 0.00 0.02 0.00 71 1014.3
20260903121528 73 244 10.0 18.0 0.00 0.02 0.00 71 1014.4
20260903120022 73 215 8.0 19.0 0.00 0.02 0.00 73 1014.6
20260903114527 73 252 8.0 19.0 0.00 0.04 0.00 73 1014.6
20260903113023 72 241 6.0 15.0 0.00 0.04 0.00 76 1014.8
20260903111517 72 293 8.0 15.0 0.00 0.04 0.00 74 1014.7
20260903110014 71 242 7.0 14.0 0.00 0.04 0.00 78 1014.7
20260903104514 70 257 8.0 16.0 0.00 0.04 0.00 78 1015.0
20260903103013 70 267 8.0 14.0 0.00 0.04 0.00 78 1014.6
20260903101512 70 237 7.0 11.0 0.00 0.04 0.00 79 1014.8
20260903100018 69 246 6.0 15.0 0.00 0.04 0.00 80 1014.7
20260903094508 69 266 6.0 12.0 0.00 0.05 0.00 81 1015.0
20260903093015 69 236 5.0 11.0 0.00 0.05 0.00 81 1015.0
20260903091600 68 275 6.0 13.0 0.00 0.05 0.00 83 1014.9
20260903090056 68 250 5.0 14.0 0.00 0.05 0.00 84 1014.8
20260903084605 68 230 6.0 12.0 0.00 0.05 0.00 85 1014.8
20260903083051 68 218 4.0 11.0 0.00 0.05 0.00 87 1014.5
20260903081548 66 154 3.0 8.0 0.00 0.05 0.00 89 1014.6
20260903080043 66 218 3.0 8.0 0.00 0.05 0.00 90 1014.8
20260903074545 65 222 2.0 7.0 0.00 0.05 0.00 90 1014.7
20260903073038 65 178 3.0 7.0 0.00 0.05 0.00 90 1014.6
20260903071537 65 166 3.0 6.0 0.00 0.05 0.00 89 1014.3
20260903070035 64 185 2.0 8.0 0.00 0.05 0.00 89 1014.2
20260903064534 64 235 3.0 7.0 0.00 0.06 0.00 89 1013.9
20260903063034 64 209 4.0 12.0 0.00 0.06 0.00 89 1013.9
20260903061534 64 215 5.0 11.0 0.00 0.06 0.00 89 1013.7
20260903060029 64 198 5.0 12.0 0.00 0.06 0.00 89 1013.4
20260903054533 63 235 4.0 9.0 0.00 0.06 0.00 90 1013.5
20260903053026 63 222 3.0 8.0 0.00 0.06 0.00 90 1013.3
20260903051526 64 185 3.0 9.0 0.00 0.06 0.00 90 1013.3
20260903050027 64 211 4.0 9.0 0.00 0.06 0.00 90 1013.5
20260903044526 64 224 3.0 8.0 0.00 0.06 0.00 90 1013.5
20260903043027 64 199 5.0 9.0 0.00 0.06 0.00 91 1013.4
20260903041522 63 248 5.0 10.0 0.00 0.06 0.00 92 1013.4
20260903040019 64 184 4.0 10.0 0.00 0.06 0.00 94 1013.1
20260903034518 64 192 4.0 9.0 0.00 0.06 0.00 94 1012.9
20260903033029 65 209 4.0 10.0 0.00 0.06 0.00 94 1013.4
20260903031518 65 257 3.0 9.0 0.00 0.06 0.00 93 1013.2
20260903030016 65 213 4.0 9.0 0.00 0.06 0.00 93 1012.9
20260903024515 64 229 3.0 8.0 0.00 0.06 0.00 92 1013.1
20260903023014 65 213 3.0 7.0 0.00 0.06 0.00 92 1012.8
20260903021514 65 211 4.0 11.0 0.00 0.06 0.00 91 1013.3
20260903020013 65 197 5.0 13.0 0.00 0.06 0.00 90 1013.1
20260903014511 65 229 6.0 12.0 0.00 0.06 0.00 90 1013.1
20260903013010 65 263 7.0 15.0 0.00 0.06 0.00 91 1013.2
20260903011507 65 252 7.0 16.0 0.00 0.06 0.00 92 1013.0
20260903010004 64 230 5.0 11.0 0.00 0.06 0.00 93 1013.1
20260903004507 64 226 4.0 8.0 0.00 0.06 0.00 95 1013.1
20260903003101 64 215 4.0 9.0 0.00 0.06 0.00 95 1013.3
20260903001559 64 217 4.0 9.0 0.00 0.06 0.00 95 1013.2
20260903000059 64 200 4.0 9.0 0.00 0.06 0.00 94 1013.2
20260902234600 65 265 4.0 9.0 0.00 0.06 0.00 94 1013.3
20260902233054 65 219 4.0 11.0 0.00 0.06 0.00 94 1013.4
20260902231552 65 175 5.0 12.0 0.00 0.06 0.00 93 1013.3
20260902230051 65 211 5.0 10.0 0.00 0.06 0.00 93 1013.4
20260902224552 65 235 4.0 10.0 0.00 0.06 0.06 93 1013.3
20260902223048 65 244 4.0 10.0 0.00 0.06 0.06 93 1013.2
20260902221552 65 209 5.0 11.0 0.00 0.06 0.06 93 1013.3
20260902220047 65 199 4.0 11.0 0.00 0.06 0.06 92 1013.4
20260902214548 65 189 3.0 9.0 0.00 0.06 0.06 92 1013.3
20260902213045 65 222 5.0 9.0 0.00 0.06 0.06 92 1013.3
20260902211545 65 213 2.0 8.0 0.00 0.06 0.06 92 1013.0
20260902210055 65 234 5.0 10.0 0.00 0.06 0.06 92 1013.4
20260902204545 65 168 3.0 9.0 0.00 0.06 0.06 92 1013.1
20260902203044 65 205 2.0 6.0 0.00 0.06 0.06 92 1013.1
20260902201545 65 161 3.0 6.0 0.00 0.06 0.06 91 1012.9
20260902200043 65 165 2.0 5.0 0.00 0.06 0.06 91 1013.1